Pittsfield, IL

3:39 PM CDT on April 25, 2017 (GMT -0500)
Pittsfield Penstone Municipal

Weather History for KPPQ - February, 2013

Change the Weather History Date:

Tuesday, February 26, 2013

  Actual Average (KUIN) Record (KUIN)
Temperature  
Mean Temperature 34 °F -  
Max Temperature 35 °F 42 °F 73 °F (1996)
Min Temperature 32 °F 25 °F -11 °F (1963)
Degree Days  
Heating Degree Days 32    
Moisture  
Dew Point 32 °F    
Average Humidity 93    
Maximum Humidity 96    
Minimum Humidity 83    
Precipitation  
Precipitation 0.52 in - - ()
Sea Level Pressure  
Sea Level Pressure 29.52 in    
Wind  
Wind Speed 15 mph (NNE)    
Max Wind Speed 21 mph    
Max Gust Speed 30 mph    
Visibility 4 miles    
Events Rain , Snow    
Averages and records for this station are not official NWS values.
T = Trace of Precipitation, MM = Missing Value Source: NWS Daily Summary

Daily Weather History Graph

Daily Weather History Graph

Search for Another Location

Airport or City:

Trip Planner

Search our weather history database for the weather conditions in past years. The results will help you decide how hot, cold, wet, or windy it might be!

Date:

Astronomy

Feb. 26, 2013 Rise Set
Actual Time 6:40 AM CST 5:52 PM CST
Civil Twilight 6:13 AM CST 6:19 PM CST
Nautical Twilight 5:41 AM CST 6:50 PM CST
Astronomical Twilight 5:10 AM CST 7:21 PM CST
Moon 7:08 PM CST (2/26) 6:43 AM CST (2/26)
Length of Visible Light 12h 06m
Length of Day
11h 12m
Full, 99% of the Moon is Illuminated
Feb 26
Full
Mar 4
Last Quarter
Mar 11
New
Mar 19
First Quarter
Mar 27
Full

Hourly Weather History & Observations

Time (CST) Temp. Windchill Dew Point Humidity Pressure Visibility Wind Dir Wind Speed Gust Speed Precip Events Conditions
12:15 AM 35.6 °F 25.5 °F 31.1 °F 84% 29.73 in 4.0 mi NE 17.3 mph 24.2 mph N/A Snow Light Snow
12:35 AM 35.8 °F 26.1 °F 31.1 °F 83% 29.71 in 5.0 mi NE 16.1 mph 26.5 mph N/A Snow Light Snow
12:55 AM 34.7 °F 23.4 °F 32.0 °F 90% 29.70 in 2.0 mi NE 20.7 mph 27.6 mph N/A Snow Light Snow
1:15 AM 33.8 °F 23.2 °F 32.0 °F 93% 29.66 in 2.0 mi NNE 17.3 mph 26.5 mph N/A Snow Light Snow
1:35 AM 33.8 °F 23.2 °F 32.2 °F 94% 29.62 in 2.5 mi NNE 17.3 mph 26.5 mph N/A Snow Light Snow
1:55 AM 34.0 °F 23.8 °F 32.0 °F 92% 29.63 in 5.0 mi NE 16.1 mph 23.0 mph 0.01 in Rain Light Rain
2:15 AM 34.2 °F 25.2 °F 32.0 °F 92% 29.62 in 4.0 mi NE 12.7 mph 17.3 mph N/A Snow Light Snow
2:35 AM 34.3 °F 24.2 °F 32.0 °F 91% 29.60 in 4.0 mi NE 16.1 mph 23.0 mph N/A Snow Light Snow
2:55 AM 34.2 °F 23.6 °F 32.0 °F 92% 29.56 in 2.5 mi NE 17.3 mph 25.3 mph 0.03 in Snow Light Snow
3:15 AM 34.0 °F 23.0 °F 32.0 °F 92% 29.52 in 3.0 mi NE 18.4 mph 26.5 mph 0.04 in Snow Light Snow
3:35 AM 34.0 °F 23.8 °F 32.0 °F 92% 29.53 in 1.8 mi NE 16.1 mph 25.3 mph 0.09 in Snow Light Snow
3:55 AM 33.4 °F 23.1 °F 32.2 °F 95% 29.50 in 1.0 mi NNE 16.1 mph 23.0 mph 0.14 in   Overcast
4:15 AM 33.8 °F 22.8 °F 32.4 °F 94% 29.47 in 2.5 mi NNE 18.4 mph 29.9 mph 0.04 in Rain Light Rain
4:35 AM 34.0 °F 23.0 °F 32.4 °F 94% 29.48 in 5.0 mi NE 18.4 mph 25.3 mph 0.09 in Rain Rain
4:55 AM 34.0 °F 23.8 °F 32.4 °F 94% 29.48 in 3.0 mi NE 16.1 mph 26.5 mph 0.12 in Rain Rain
5:15 AM 33.8 °F 23.9 °F 32.4 °F 94% 29.48 in 1.0 mi NE 15.0 mph 19.6 mph 0.05 in Snow Light Snow
5:35 AM 33.8 °F 23.2 °F 32.7 °F 96% 29.47 in 1.0 mi NE 17.3 mph 23.0 mph 0.10 in Snow Light Snow
5:55 AM 34.0 °F 23.8 °F 32.9 °F 96% 29.45 in 1.2 mi NE 16.1 mph 26.5 mph 0.14 in Snow Light Snow
6:15 AM 34.0 °F 23.0 °F 32.5 °F 94% 29.45 in 1.2 mi NE 18.4 mph 25.3 mph 0.02 in Snow Light Snow
6:35 AM 34.0 °F 24.2 °F 32.5 °F 94% 29.45 in 1.5 mi NE 15.0 mph - 0.04 in Snow Light Snow
6:55 AM 34.0 °F 23.0 °F 32.5 °F 94% 29.45 in 1.5 mi NE 18.4 mph 21.9 mph 0.06 in   Overcast
7:15 AM 34.0 °F 24.6 °F 32.5 °F 94% 29.46 in 1.5 mi NE 13.8 mph 20.7 mph N/A   Overcast
7:35 AM 34.2 °F 25.2 °F 32.5 °F 94% 29.46 in 3.0 mi NE 12.7 mph - N/A Rain Light Rain
7:55 AM 34.0 °F 23.0 °F 32.4 °F 94% 29.45 in 2.0 mi NE 18.4 mph - 0.01 in Rain Light Rain
8:15 AM 33.8 °F 23.2 °F 32.0 °F 93% 29.45 in 1.8 mi NE 17.3 mph 23.0 mph N/A Rain Light Rain
8:35 AM 34.2 °F 24.4 °F 32.5 °F 94% 29.45 in 2.5 mi NE 15.0 mph - N/A Rain Light Rain
8:55 AM 33.8 °F 23.2 °F 32.0 °F 93% 29.44 in 2.0 mi NE 17.3 mph 25.3 mph N/A   Overcast
9:15 AM 34.2 °F 24.4 °F 32.9 °F 95% 29.44 in 1.8 mi NE 15.0 mph 20.7 mph N/A   Overcast
9:35 AM 34.2 °F 24.4 °F 32.9 °F 95% 29.45 in 1.5 mi NE 15.0 mph 19.6 mph N/A Rain Light Rain
9:55 AM 34.3 °F 25.0 °F 32.9 °F 94% 29.44 in 1.5 mi NE 13.8 mph 19.6 mph N/A   Overcast
10:15 AM 34.3 °F 25.0 °F 33.1 °F 95% 29.44 in 1.8 mi NE 13.8 mph 20.7 mph N/A Rain Light Rain
10:35 AM 34.7 °F 25.5 °F 33.3 °F 94% 29.44 in 1.8 mi NE 13.8 mph 18.4 mph N/A   Overcast
10:55 AM 34.5 °F 25.3 °F 33.1 °F 94% 29.43 in 1.8 mi NE 13.8 mph 18.4 mph N/A   Overcast
11:15 AM 34.7 °F 24.7 °F 33.3 °F 94% 29.44 in 1.8 mi NE 16.1 mph 20.7 mph N/A   Overcast
11:35 AM 34.7 °F 25.1 °F 33.3 °F 94% 29.44 in 2.5 mi NE 15.0 mph - N/A   Overcast
11:55 AM 34.7 °F 26.4 °F 33.3 °F 94% 29.43 in 2.5 mi NNE 11.5 mph 20.7 mph N/A   Overcast
12:15 PM 34.7 °F 26.4 °F 33.1 °F 94% 29.44 in 2.5 mi NNE 11.5 mph 17.3 mph N/A   Overcast
12:35 PM 34.3 °F 25.5 °F 33.1 °F 95% 29.43 in 2.5 mi NNE 12.7 mph 18.4 mph N/A   Overcast
12:55 PM 34.3 °F 26.5 °F 32.9 °F 94% 29.44 in 2.5 mi NNE 10.4 mph - N/A   Overcast
1:15 PM 34.2 °F 25.2 °F 32.9 °F 95% 29.43 in 2.5 mi NNE 12.7 mph 18.4 mph N/A Rain Light Rain
1:35 PM 34.2 °F 25.2 °F 32.9 °F 95% 29.43 in 4.0 mi NNE 12.7 mph - N/A Rain Light Rain
1:55 PM 34.2 °F 25.2 °F 32.7 °F 94% 29.43 in 1.8 mi NNE 12.7 mph 18.4 mph N/A Snow Light Snow
2:15 PM 34.2 °F 25.7 °F 32.9 °F 95% 29.44 in 3.0 mi NNE 11.5 mph 20.7 mph N/A Snow Light Snow
2:35 PM 34.2 °F 26.2 °F 32.9 °F 95% 29.45 in 4.0 mi NNE 10.4 mph 17.3 mph N/A Rain Light Rain
2:55 PM 34.3 °F 27.0 °F 32.5 °F 93% 29.46 in 7.0 mi NNE 9.2 mph 17.3 mph N/A   Light Drizzle
3:15 PM 34.2 °F 26.8 °F 32.5 °F 94% 29.46 in 3.0 mi North 9.2 mph - N/A Rain Light Rain
3:35 PM 34.2 °F 26.8 °F 32.7 °F 94% 29.48 in 5.0 mi North 9.2 mph - 0.01 in Rain Light Rain
3:55 PM 34.3 °F 27.7 °F 32.7 °F 94% 29.48 in 7.0 mi North 8.1 mph - 0.01 in Rain Light Rain
4:15 PM 34.3 °F 26.5 °F 32.5 °F 93% 29.49 in 10.0 mi North 10.4 mph - N/A   Light Drizzle
4:35 PM 34.0 °F 25.5 °F 32.2 °F 93% 29.49 in 7.0 mi North 11.5 mph - N/A Snow Light Snow
4:55 PM 34.0 °F 25.5 °F 32.2 °F 93% 29.51 in 5.0 mi North 11.5 mph - N/A   Overcast
5:15 PM 33.8 °F 26.4 °F 32.2 °F 94% 29.52 in 4.0 mi North 9.2 mph - N/A   Overcast
5:35 PM 33.8 °F 25.3 °F 32.2 °F 94% 29.53 in 4.0 mi North 11.5 mph 16.1 mph N/A   Overcast
5:55 PM 33.8 °F 25.3 °F 32.0 °F 93% 29.54 in 2.0 mi NNW 11.5 mph - N/A Snow Light Snow
6:15 PM 33.8 °F 25.3 °F 32.0 °F 93% 29.55 in 2.5 mi NNW 11.5 mph - N/A Snow Light Snow
6:35 PM 33.4 °F 24.3 °F 32.0 °F 94% 29.56 in 2.5 mi NNW 12.7 mph - N/A Snow Light Snow
6:55 PM 33.8 °F 24.3 °F 32.0 °F 93% 29.57 in 7.0 mi NNW 13.8 mph - N/A Snow Light Snow
7:15 PM 33.8 °F 24.8 °F 32.0 °F 93% 29.58 in 10.0 mi NNW 12.7 mph - N/A   Overcast
7:35 PM 33.8 °F 25.3 °F 31.6 °F 92% 29.59 in 10.0 mi NW 11.5 mph - N/A   Overcast
7:55 PM 33.8 °F 24.3 °F 31.3 °F 90% 29.60 in 10.0 mi NNW 13.8 mph - N/A   Overcast
8:15 PM 33.8 °F 24.3 °F 31.1 °F 90% 29.60 in 10.0 mi NNW 13.8 mph - N/A   Overcast
8:35 PM 33.8 °F 24.3 °F 31.1 °F 90% 29.61 in 10.0 mi NNW 13.8 mph - N/A   Overcast
8:55 PM 33.6 °F 25.0 °F 31.1 °F 90% 29.61 in 7.0 mi NNW 11.5 mph - N/A   Overcast
9:15 PM 33.3 °F 23.7 °F 31.1 °F 92% 29.61 in 4.0 mi NNW 13.8 mph 18.4 mph N/A   Overcast
9:35 PM 33.1 °F 23.4 °F 30.9 °F 92% 29.62 in 7.0 mi NNW 13.8 mph 19.6 mph N/A   Overcast
9:55 PM 33.1 °F 24.4 °F 30.6 °F 90% 29.63 in 10.0 mi NNW 11.5 mph - N/A   Overcast
10:15 PM 32.9 °F 24.7 °F 30.4 °F 90% 29.63 in 10.0 mi NNW 10.4 mph - N/A   Overcast
10:35 PM 33.8 °F 25.3 °F 30.2 °F 87% 29.63 in 10.0 mi NW 11.5 mph - N/A   Overcast
10:55 PM 32.9 °F 25.3 °F 30.4 °F 90% 29.63 in 10.0 mi NW 9.2 mph - N/A   Overcast
11:15 PM 32.9 °F 25.9 °F 30.6 °F 91% 29.64 in 10.0 mi WNW 8.1 mph - N/A   Overcast
11:35 PM 32.9 °F 25.9 °F 30.2 °F 90% 29.64 in 10.0 mi WNW 8.1 mph - N/A   Overcast
11:55 PM 32.9 °F 25.3 °F 30.2 °F 90% 29.65 in 10.0 mi WNW 9.2 mph - N/A   Overcast